Terminal Aerodrome Forecast
Issued by NWS

Home | Current Version | Previous Version | Text Only | Print | Product List | Glossary On
Versions: 1 2 3 4 5 6 7 8 9 10 11 12 13 14 15 16 17 18
000
FTUS45 KVEF 232320
TAFDAG
TAF
KDAG 232320Z 2400/2424 27015G23KT P6SM FEW100
     FM240800 26015KT P6SM SKC
     FM241500 29010KT P6SM FEW200
     FM242300 25015G23KT P6SM SCT200=

USA.gov is the U.S. government's official web portal to all federal, state and local government web resources and services.